Weather in Hato Mayor del Rey

Dominican Republic     18°46′00″N   69°15′04″W
temp.,
°C
wind,
m/s
gust,
m/s
humid.,
%
clouds,
%
prec.,
mm/h
press.,
hPa
HPBL,
m
3 august, tue
tue323:00+23ne229271 0.0 101841
02:00+22ne129519 2.6 101720
05:00+22ne12955 1.9 101623
08:00+25ene248497 1.9 1017324
11:00+29se456492 0.8 10171336
14:00+28sse346887 7.3 10161075
17:00+29sse346961 3.0 1015823
20:00+25sse118566 4.4 101724
4 august, wed
wed423:00+23ene22910 0.1 101818
02:00+23ene11931 0.1 101713
05:00+22ese11948 0.0 101711
08:00+25e23855 0.0 1018238
11:00+30se345727 0.1 10171676
14:00+33sse354788 0.1 10152233
17:00+28ssw237467 2.4 1016173
20:00+25s118411 3.3 101821
5 august, thu
thu523:00+23ene22900 0.0 101932
02:00+23ne11910 0.0 101816
05:00+23ne12933 0.0 101818
08:00+26ne12844 0.0 1019210
11:00+31ese355576 0.1 10191831
14:00+28nw1375100 3.3 1018103
17:00+28sw227455 4.0 1016238
20:00+25ene228493 4.9 101832
6 august, fri
fri623:00+24ene22915 0.0 101940
02:00+23ne22931 0.1 101823
05:00+23nne22941 0.0 101820
08:00+25ne12840 0.0 1019201
11:00+30ene356080 0.4 10191601
14:00+29ene236885 2.8 1017696
17:00+29ene236649 1.9 1016866
20:00+25ne35902 2.3 1018124
7 august, sat
sat723:00+24ene22955 0.0 101937
02:00+23ne22952 0.0 101738
05:00+23nne22941 0.0 101729
08:00+25nne25860 0.0 1018292
11:00+31e34530 0.0 10171772
14:00+32ne665226 0.1 10161740
17:00+29ne346542 0.6 1015628
20:00+25ne37875 0.8 1017207